Location: Nitra
(0.0000°N, 18.0833°E)
Time: 22:05:18
(UTC+01:00)

Tiangong - Visible Passes

Search period start: 02 February 2023 00:00
Search period end: 12 February 2023 00:00
Orbit: 383 x 386 km, 41.5° (Epoch: 02 February)

Date Brightness Start Highest point End Pass type
(mag) Time Alt. Az. Time Alt. Az. Time Alt. Az.
02 Feb 0.3 18:54:03 10° NNE 18:54:15 11° NNE 18:54:15 11° NNE visible
03 Feb -1.0 19:29:23 10° NW 19:31:30 39° NW 19:31:30 39° NW visible
04 Feb -1.3 18:30:04 10° NNW 18:32:54 31° NE 18:35:45 10° ESE visible
04 Feb 1.5 20:08:40 10° WSW 20:08:58 11° SW 20:08:58 11° SW visible
05 Feb 0.1 19:07:11 10° WNW 19:09:55 27° SW 19:12:39 10° SSE visible
07 Feb 1.3 18:46:27 10° WSW 18:47:15 11° SW 18:48:03 10° SSW visible
08 Feb 0.5 04:38:17 10° S 04:40:43 20° SE 04:43:09 10° E visible
09 Feb -1.8 05:14:52 12° WSW 05:17:40 43° NW 05:20:41 10° NNE visible
10 Feb 0.2 04:19:45 22° ENE 04:19:45 22° ENE 04:21:00 10° NE visible
11 Feb 0.4 04:56:37 11° N 04:56:37 11° N 04:56:53 10° N visible
